sat.trackr.live / text

‹ back to catalog

STARLINK-6216

NORAD 56893 · 2023-083T

PAYLOAD ACTIVE UNKNOWN

§ Identity

Operator
Country
US
Launch date
2023-06-12
Launch site
AFETR
Launch vehicle
Mass (kg)
RCS (m²)

Purposes: comms

External: N2YO · Heavens-Above · Gunter

§ Orbital elements

Epoch: 2026-05-25T00:03:22.046400Z

Period
94.27 min
Inclination
43.0048°
Eccentricity
0.0001031
Mean motion
15.27589693 rev/d
Perigee alt
482.3 km
Apogee alt
483.7 km
Semi-major
6,861.2 km
B*
-7.1794e-5
RAAN
14.0290°
Arg perigee
261.7557°
Mean anomaly
98.3178°
Rev number
16,342

§ Raw data

STARLINK-62161 56893U 23083T   26145.00233850 -.00002238  00000+0 -71794-4 0  99942 56893  43.0048  14.0290 0001031 261.7557  98.3178 15.27589693163423

JSON: /api/v1/satellites/56893 · /tle

For live sub-satellite position, see the globe view (requires WebGL).

§ Visibility from observer

Set your observer location to see the next 7 days of passes ≥ 10°. The values pass through the URL so the page stays shareable.

No JS? Fill the form by hand. The geolocation button needs JavaScript.